Other Public Products
Issued by NWS Charleston, SC

Current Version | Previous Version | Text Only | Print | Product List | Glossary On
Versions: 1 2 3 4 5 6 7 8 9 10 11 12 13 14 15 16 17 18 19 20 21 22 23 24 25 26 27 28 29 30 31 32 33 34 35 36 37 38 39 40 41 42 43 44 45 46 47 48 49 50
000 FPUS82 KCHS 221627 OPUCHS TEST...KCHS/KSAV Gateway Observations...TEST National Weather Service Charleston SC 1200 PM EDT SAT JUL 22 2017 NOTE: "fair" indicates few or no clouds below 12,000 feet with no significant weather and/or obstructions to visibility. SCZ050-WAZ558-NCZ071-TXZ119-213-PAZ071-DCZ001-FLZ074-172-MI076- NYZ176-178-MAZ016-IL014-TNZ027-NJZ106-GAZ044-MD014-221700- ...Gateway Observations for Charleston International... CITY SKY/WX TMP DP RH WIND PRES REMARKS Chas Airport MOSUNNY 89 73 59 W9 30.05S HX 97 Seattle CLOUDY 67 53 61 VRB3 30.21R Charlotte MOSUNNY 91 74 57 SW7 30.02F HX 100 Dallas DFW MOSUNNY 92 74 55 S9 29.94F HX 101 Dallas Love MOSUNNY 92 72 51 SW9 29.95F HX 99 Philladelphia PTSUNNY 90 68 48 CALM 29.87F HX 94 Wash National CLOUDY 92 72 51 NE5 29.89F HX 99 Baltimore CLOUDY 91 70 49 CALM 29.88F HX 96 Miami CLOUDY 91 75 59 SE8 30.11S HX 101 Detroit CLOUDY 80 73 79 SW8 29.82F Newark PTSUNNY 90 54 29 CALM 29.87F Laguardia MOSUNNY 87 58 37 NE13 29.87F J F K PTSUNNY 87 66 49 S8 29.88F Boston Logan CLOUDY 79 62 56 SE6 29.85F Ft. Lauderdale MOSUNNY 89 75 63 E8 30.10S HX 99 Chicago O`Hare PTSUNNY 77 68 73 N10 29.83F Chicago Midway CLOUDY 78 68 71 NW8 29.83S Houston Bush PTSUNNY 90 75 61 VRB6 30.00F HX 100 Houston Hobby CLOUDY 89 77 67 S6 30.00S HX 101 Nashville PTSUNNY 92 74 55 W8 30.01R HX 101 Atlanta MOSUNNY 86 75 69 S7 30.05F HX 95 $$ GAZ044-118-TXZ119-213-NCZ071-DCZ001-MDZ014-506-PAZ021-071-NJZ106- NYZ176-178-MAZ106-OHZ011-021-055-MIZ076-KYZ091-ILZ014-INZ047- MNZ060-ONZ431-221700- ...Gateway Observations for Savannah International... CITY SKY/WX TMP DP RH WIND PRES REMARKS Savannah Arpt MOSUNNY 90 71 53 VRB3 30.06F HX 96 Atlanta MOSUNNY 86 75 69 S7 30.05F HX 95 Charlotte MOSUNNY 91 74 57 SW7 30.02F HX 100 Dallas DFW MOSUNNY 92 74 55 S9 29.94F HX 101 Houston Bush PTSUNNY 90 75 61 VRB6 30.00F HX 100 Wash National CLOUDY 92 72 51 NE5 29.89F HX 99 Wash Dulles PTSUNNY 88 71 57 N3 29.91S HX 94 Baltimore CLOUDY 91 70 49 CALM 29.88F HX 96 Philadelphia PTSUNNY 90 68 48 CALM 29.87F HX 94 Newark PTSUNNY 90 54 29 CALM 29.87F Laguardia MOSUNNY 87 58 37 NE13 29.87F J F K PTSUNNY 87 66 49 S8 29.88F Boston CLOUDY 79 62 56 SE6 29.85F Pittsburg LGT RAIN 73 72 96 S8 29.90S Akron CLOUDY 72 68 87 W15 29.90R Cleveland CLOUDY 78 73 84 SW10 29.88R Cincinnati PTSUNNY 87 79 76 W12G20 29.92F HX 101 Columbus CLOUDY 75 74 97 S3 29.89F THUNDER Detroit CLOUDY 80 73 79 SW8 29.82F Chicago O`Hare PTSUNNY 77 68 73 N10 29.83F Minneapolis MOSUNNY 81 68 64 S7 29.82F Indianapolis CLOUDY 83 75 77 SW21 29.86F HX 90 Toronto Canada LGT RAIN 73 61 64 S3 29.88S $$

USA.gov is the U.S. government's official web portal to all federal, state and local government web resources and services.